Cleveland, OH

11:30 PM EST on February 07, 2016 (GMT -0500)
Cleveland-Hopkins International

Weather History for KCLE - January, 2013

Change the Weather History Date:

Thursday, January 10, 2013

  Actual Average Record
Temperature  
Mean Temperature 34 °F 28 °F  
Max Temperature 42 °F 34 °F 61 °F (1939)
Min Temperature 26 °F 22 °F -12 °F (1875)
Degree Days  
Heating Degree Days 31 37  
Month to date heating degree days 362 369  
Since 1 July heating degree days 2443 2476  
Cooling Degree Days 0 0  
Month to date cooling degree days 0 0  
Year to date cooling degree days 0 0  
Moisture  
Dew Point 28 °F    
Average Humidity 74    
Maximum Humidity 92    
Minimum Humidity 55    
Precipitation  
Precipitation T in 0.09 in 0.99 in (1953)
Month to date precipitation 0.02 0.96  
Year to date precipitation 0.02 0.96  
Snow  
Snow 0.00 in 0.50 in - ()
Month to date snowfall T 5.8  
Since 1 July snowfall 15.5 24.4  
Snow Depth T in    
Sea Level Pressure  
Sea Level Pressure 30.50 in    
Wind  
Wind Speed 6 mph (SE)    
Max Wind Speed 14 mph    
Max Gust Speed 18 mph    
Visibility 10 miles    
Events      
T = Trace of Precipitation, MM = Missing Value Source: NWS Daily Summary

Daily Weather History Graph

Daily Weather History Graph

Search for Another Location

Airport or City:

Trip Planner

Search our weather history database for the weather conditions in past years. The results will help you decide how hot, cold, wet, or windy it might be!

Date:

Astronomy

Jan. 10, 2013 Rise Set
Actual Time 7:52 AM EST 5:17 PM EST
Civil Twilight 7:22 AM EST 5:48 PM EST
Nautical Twilight 6:47 AM EST 6:22 PM EST
Astronomical Twilight 6:14 AM EST 6:56 PM EST
Moon 6:31 AM EST (1/10) 4:24 PM EST (1/10)
Length of Visible Light 10h 26m
Length of Day
9h 24m
Waning Crescent, 2% of the Moon is Illuminated
Jan 10
Waning Crescent
Jan 11
New
Jan 18
First Quarter
Jan 26
Full
Feb 3
Last Quarter

Hourly Weather History & Observations

Time (EST) Temp. Windchill Dew Point Humidity Pressure Visibility Wind Dir Wind Speed Gust Speed Precip Events Conditions
12:51 AM 32.0 °F 28.7 °F 28.0 °F 85% 30.54 in 10.0 mi SW 3.5 mph - N/A   Mostly Cloudy
1:51 AM 32.0 °F 27.5 °F 28.0 °F 85% 30.56 in 10.0 mi SW 4.6 mph - N/A   Mostly Cloudy
2:51 AM 30.0 °F - 27.0 °F 88% 30.56 in 10.0 mi Calm Calm - N/A   Scattered Clouds
3:51 AM 28.4 °F 24.6 °F 26.6 °F 93% 30.54 in 10.0 mi SW 3.5 mph - N/A   Mostly Cloudy
4:51 AM 26.6 °F 21.2 °F 24.8 °F 93% 30.53 in 8.0 mi SSW 4.6 mph - N/A   Mostly Cloudy
5:51 AM 28.0 °F 22.8 °F 26.1 °F 92% 30.57 in 9.0 mi South 4.6 mph - N/A   Mostly Cloudy
6:51 AM 28.4 °F 24.6 °F 26.6 °F 93% 30.57 in 8.0 mi South 3.5 mph - N/A   Mostly Cloudy
7:51 AM 27.0 °F 23.0 °F 25.0 °F 92% 30.61 in 8.0 mi SE 3.5 mph - N/A   Scattered Clouds
8:51 AM 28.9 °F 25.2 °F 27.0 °F 92% 30.62 in 6.0 mi SE 3.5 mph - N/A   Mostly Cloudy
9:51 AM 35.1 °F 32.2 °F 30.0 °F 82% 30.62 in 9.0 mi East 3.5 mph - N/A   Mostly Cloudy
10:51 AM 37.0 °F 32.4 °F 30.0 °F 76% 30.63 in 10.0 mi ENE 5.8 mph - N/A   Mostly Cloudy
11:51 AM 39.0 °F 34.0 °F 28.9 °F 67% 30.59 in 10.0 mi ESE 6.9 mph - N/A   Mostly Cloudy
12:51 PM 39.9 °F 35.1 °F 28.0 °F 63% 30.55 in 10.0 mi ESE 6.9 mph - N/A   Mostly Cloudy
1:51 PM 41.0 °F 35.8 °F 28.9 °F 62% 30.53 in 10.0 mi SE 8.1 mph - N/A   Mostly Cloudy
2:51 PM 42.1 °F 38.4 °F 28.9 °F 60% 30.51 in 10.0 mi SSE 5.8 mph - N/A   Mostly Cloudy
3:51 PM 42.1 °F 37.7 °F 28.9 °F 60% 30.50 in 10.0 mi SSE 6.9 mph - N/A   Mostly Cloudy
4:51 PM 39.9 °F 33.9 °F 27.0 °F 60% 30.46 in 10.0 mi SE 9.2 mph - N/A   Mostly Cloudy
5:51 PM 37.9 °F 33.5 °F 28.9 °F 70% 30.45 in 10.0 mi SSE 5.8 mph - N/A   Overcast
6:51 PM 39.0 °F 32.8 °F 28.0 °F 65% 30.43 in 10.0 mi SE 9.2 mph - N/A   Overcast
7:51 PM 39.0 °F 31.8 °F 28.0 °F 65% 30.40 in 10.0 mi ESE 11.5 mph - N/A   Overcast
8:51 PM 39.0 °F 35.7 °F 28.0 °F 65% 30.38 in 10.0 mi SE 4.6 mph - 0.00 in   Overcast
9:51 PM 39.0 °F 35.7 °F 28.0 °F 65% 30.33 in 10.0 mi ESE 4.6 mph - N/A   Overcast
10:51 PM 41.0 °F 39.0 °F 27.0 °F 57% 30.28 in 10.0 mi ESE 3.5 mph - N/A   Overcast
11:51 PM 42.1 °F 35.7 °F 26.1 °F 53% 30.23 in 10.0 mi SE 11.5 mph - N/A   Overcast